FLOCK 3P'-2

Last updated on Wed Feb 14 2018 16:20:56 GMT+0000 (Coordinated Universal Time)

1 43120U 18004K 18044.94630925 .00000614 00000-0 29985-4 0 9996 2 43120 97.5508 107.2027 0011206 158.4913 201.6796 15.22021626 4963
UTC large
Height (km)
Speed (km/s)
/
Latitude / Longitude
Inclination (degrees)
Orbital Period (minutes)
Azimuth
Elevation
Range (km)
Doppler Factor

Next 0 passes for location: London (51.5072 / 0.1276)

Sorry there are no passes over London.